Regional Weather Roundup
Issued by NWS

Home | Current Version | Previous Version | Text Only | Print | Product List | Glossary On
Versions: 1 2 3 4 5 6 7 8 9 10 11 12 13 14 15 16 17 18 19 20 21 22 23 24 25 26 27 28 29 30 31 32 33 34 35 36 37 38 39 40 41 42 43 44 45 46 47 48 49 50
000
ASUS43 KMKX 190620
RWRWI

WISCONSIN REGIONAL WEATHER ROUNDUP
NATIONAL WEATHER SERVICE MILWAUKEE/SULLIVAN WI
1200 AM CST MON FEB 19 2018

NOTE: "FAIR" INDICATES FEW OR NO CLOUDS BELOW 12,000 FEET WITH NO
SIGNIFICANT WEATHER AND/OR OBSTRUCTIONS TO VISIBILITY.

WIZ001-002-006>008-014>016-023>028-190700-
NORTHWEST WISCONSIN

CITY           SKY/WX    TMP DP  RH WIND       PRES   REMARKS
SUPERIOR ARPT  CLOUDY    19  13  77 NE8       29.91R WCI   9
6HR MIN TEMP:  20; 6HR MAX TEMP:  27; 6HR PCP:  0.07;

ASHLAND        CLOUDY    21  19  92 N17       29.87R WCI   7
6HR MIN TEMP:  21; 6HR MAX TEMP:  24; 6HR PCP: TRACE;

HAYWARD        CLOUDY    26  22  84 NE12      29.81R WCI  16
6HR MIN TEMP:  26; 6HR MAX TEMP:  38;

SIREN          CLOUDY    26  21  82 NE14      29.81R WCI  14
6HR MIN TEMP:  25; 6HR MAX TEMP:  40;

CUMBERLAND     CLOUDY    28  23  80 N14       29.75R WCI  17
RICE LAKE      FAIR      25  22  87 CALM      29.76R
6HR MIN TEMP:  25; 6HR MAX TEMP:  40;

CHETEK         CLOUDY    32  27  80 N3        29.74R
6HR MIN TEMP:  32; 6HR MAX TEMP:  39;

LADYSMITH      CLOUDY    33  26  75 SE3       29.76R
6HR MIN TEMP:  33; 6HR MAX TEMP:  38;

EAU CLAIRE     FAIR      33  26  75 SE6       29.73R WCI  28
6HR MIN TEMP:  33; 6HR MAX TEMP:  38;

MENOMONIE      FAIR      32  28  84 NE3       29.73S
6HR MIN TEMP:  33; 6HR MAX TEMP:  40;

NEW RICHMOND   FAIR      26  23  87 N12       29.75R WCI  16
6HR MIN TEMP:  26; 6HR MAX TEMP:  39;

OSCEOLA        CLOUDY    27  23  84 N12       29.79S WCI  17
6HR MIN TEMP:  27; 6HR MAX TEMP:  40;

$$

WIZ003>005-009-010-017-018-190700-
NORTH CENTRAL WISCONSIN

CITY           SKY/WX    TMP DP  RH WIND       PRES   REMARKS
MANITOWISH WTR CLOUDY    31  24  76 CALM      29.75R
6HR MIN TEMP:  31; 6HR MAX TEMP:  33;

ARBOR VITAE    CLOUDY    34  28  77 S6        29.74S WCI  29
6HR MIN TEMP:  33; 6HR MAX TEMP:  37;

WOODRUFF       CLOUDY    34  28  77 S6        29.74S WCI  29
6HR MIN TEMP:  33; 6HR MAX TEMP:  37;

RHINELANDER    CLOUDY    32  26  78 S7        29.76S WCI  26
6HR MIN TEMP:  32; 6HR MAX TEMP:  34;

EAGLE RIVER    CLOUDY    32  24  71 SW5       29.75S WCI  27
6HR MIN TEMP:  32; 6HR MAX TEMP:  32;

LAND O LAKES   CLOUDY    33  24  72 S5        29.77R WCI  28
6HR MIN TEMP:  32; 6HR MAX TEMP:  33;

PHILLIPS       CLOUDY    32  26  78 S5        29.74R WCI  28
6HR MIN TEMP:  32; 6HR MAX TEMP:  35;

TOMAHAWK       CLOUDY    31  25  77 CALM      29.77S
6HR MIN TEMP:  31; 6HR MAX TEMP:  32;

MEDFORD        CLOUDY    31  26  79 SE3       29.75R
6HR MIN TEMP:  31; 6HR MAX TEMP:  33;

MERRILL        CLOUDY    32  26  78 CALM      29.77F
6HR MIN TEMP:  31; 6HR MAX TEMP:  33;

$$

WIZ029-030-035-036-043>047-190700-
CENTRAL WISCONSIN

CITY           SKY/WX    TMP DP  RH WIND       PRES   REMARKS
WAUSAU         CLOUDY    29  25  85 SE8       29.75F WCI  21
6HR MIN TEMP:  29; 6HR MAX TEMP:  32;

MOSINEE        FAIR      28  27  93 SE6       29.77F WCI  22
MARSHFIELD     MOCLDY    30  25  81 S6        29.74S WCI  24
6HR MIN TEMP:  28; 6HR MAX TEMP:  33;

STEVENS POINT  FAIR      29  28  94 SE3       29.78S
6HR MIN TEMP:  29; 6HR MAX TEMP:  32;

WAUPACA        CLOUDY    37  31  77 S7        29.81S WCI  32
6HR MIN TEMP:  37; 6HR MAX TEMP:  38;

WAUTOMA        CLOUDY    35  30  82 S6        29.81S WCI  30
6HR MIN TEMP:  34; 6HR MAX TEMP:  36;

WISC RAPIDS    FAIR      32  26  78 S5        29.78S WCI  27
6HR MIN TEMP:  31; 6HR MAX TEMP:  36;

CAMP DOUGLAS   FAIR      36  29  75 S9        29.75S WCI  29
6HR MIN TEMP:  36; 6HR MAX TEMP:  38;

$$

WIZ011>013-019>022-031-037>040-048>050-190700-
NORTHEAST WISCONSIN

CITY           SKY/WX    TMP DP  RH WIND       PRES   REMARKS
ANTIGO         CLOUDY    26  24  89 SE6       29.77F WCI  20
6HR MIN TEMP:  26; 6HR MAX TEMP:  30;

SHAWANO        CLOUDY    35  27  73 S3        29.82S
6HR MIN TEMP:  35; 6HR MAX TEMP:  37;

OCONTO         CLOUDY    33  28  81 S3        29.84F
6HR MIN TEMP:  32; 6HR MAX TEMP:  33;

STURGEON BAY   CLOUDY    35  31  85 S14       29.85F WCI  26
6HR MIN TEMP:  33; 6HR MAX TEMP:  35;

GREEN BAY      CLOUDY    34  27  75 S9        29.83F WCI  27
6HR MIN TEMP:  33; 6HR MAX TEMP:  35;

MANITOWOC      CLOUDY    34  31  88 S10       29.86F WCI  26
6HR MIN TEMP:  33; 6HR MAX TEMP:  36;

APPLETON       CLOUDY    32  27  80 S8        29.80F WCI  25
CLINTONVILLE   CLOUDY    33  27  77 S6        29.81S WCI  28
6HR MIN TEMP:  33; 6HR MAX TEMP:  36;

OSHKOSH        MOCLDY    31  27  85 S5        29.82F WCI  26
6HR MIN TEMP:  29; 6HR MAX TEMP:  36;

$$

WIZ032>034-041-042-053>061-190700-
SOUTHWEST WISCONSIN

CITY           SKY/WX    TMP DP  RH WIND       PRES   REMARKS
LA CROSSE      CLOUDY    40  30  67 S15       29.73S WCI  32
6HR MIN TEMP:  37; 6HR MAX TEMP:  40;

SPARTA         CLOUDY    38  30  72 S6        29.76S WCI  34
6HR MIN TEMP:  34; 6HR MAX TEMP:  38;

VIROQUA        CLOUDY    36  31  83 S10       29.75S WCI  28
6HR MIN TEMP:  35; 6HR MAX TEMP:  37;

BOSCOBEL       FAIR      38  29  70 SW3       29.78F
6HR MIN TEMP:  37; 6HR MAX TEMP:  41;

PRAIRIE DU CHI CLOUDY    40  28  62 SE7       29.76S
6HR MIN TEMP:  38; 6HR MAX TEMP:  41;

PLATTEVILLE    CLOUDY    37  32  81 S9        29.78F WCI  31
6HR MIN TEMP:  37; 6HR MAX TEMP:  39;

$$

WIZ056-057-062-063-064-067-068-190700-
SOUTH CENTRAL WISCONSIN

CITY           SKY/WX    TMP DP  RH WIND       PRES   REMARKS
REEDSBURG      FAIR      37  30  77 S3        29.77F
6HR MIN TEMP:  35; 6HR MAX TEMP:  38;

BARABOO/DELLS  FAIR      37  30  77 S10G17    29.77F WCI  29
6HR MIN TEMP:  34; 6HR MAX TEMP:  37;

LONE ROCK      CLOUDY    38  32  79 SE6       29.79F WCI  33
6HR MIN TEMP:  36; 6HR MAX TEMP:  38;

MINERAL POINT  CLOUDY    36  34  93 SE8       29.78F WCI  29
MADISON        MOCLDY    36  31  82 MISG      29.82F
6HR MIN TEMP:  34; 6HR MAX TEMP:  38;

MIDDLETON      CLOUDY    38  32  79 S7        29.80F WCI  33
6HR MIN TEMP:  36; 6HR MAX TEMP:  39;

WATERTOWN      MOCLDY    36  32  85 S5        29.83F WCI  32
6HR MIN TEMP:  35; 6HR MAX TEMP:  38;

MONROE         MOCLDY    36  32  87 S16       29.79F WCI  26
JANESVILLE     CLOUDY    39  32  75 S12       29.83S WCI  32
$$

WIZ051-052-058>065-066-070>072-190700-
SOUTHEAST WISCONSIN

CITY           SKY/WX    TMP DP  RH WIND       PRES   REMARKS
MILWAUKEE      MOCLDY    33  29  85 SE5       29.86F WCI  29
6HR MIN TEMP:  33; 6HR MAX TEMP:  37;

WAUKESHA       CLOUDY    34  28  80 SE5       29.85F WCI  30
MILWAUKEE/TIMM CLOUDY    34  28  80 CALM      29.87S
RACINE         FAIR      34  31  88 S6        29.89F WCI  29
6HR MIN TEMP:  33; 6HR MAX TEMP:  36;

BURLINGTON     CLOUDY    39  30  70 S12       29.85F WCI  32
6HR MIN TEMP:  36; 6HR MAX TEMP:  39;

KENOSHA        MOCLDY    38  29  70 S9        29.86F WCI  31
6HR MIN TEMP:  34; 6HR MAX TEMP:  39;

FOND DU LAC    FAIR      35  27  72 S12       29.82F WCI  27
6HR MIN TEMP:  34; 6HR MAX TEMP:  35;

SHEBOYGAN      FAIR      32  30  92 S9        29.85F WCI  24
6HR MIN TEMP:  32; 6HR MAX TEMP:  34;

WEST BEND      MOCLDY    32  30  93 SE3       29.85F
JUNEAU         FAIR      35  30  82 S8        29.84F WCI  28
6HR MIN TEMP:  32; 6HR MAX TEMP:  37;

$$

LSZ147-162-190700-
LAKE SUPERIOR

STATION/POSITION TIME  TEMP    WIND        PRES    WAVE
                       AIR SEA DIR/SP/G            HT/PER
                 (UTC) (F)     (DEG/KT/KT) (MB)    (FT/S)
DEVILS ISLAND    0600   21      20/ 17/ 20 1014.1R
SAXON HARBOR     0540   26      40/ 17/ 21 1010.8R
$$

LMZ867-665-643>646-190700-
LAKE MICHIGAN

STATION/POSITION TIME  TEMP    WIND        PRES



USA.gov is the U.S. government's official web portal to all federal, state and local government web resources and services.